Starlink 2001

operational
NORAD ID: 47596 Int'l Des: 2021-009 Owner: SPXS Country: US Constellation: starlink
LEOCIRCULARSTARLINK_TYPE

Über Starlink 2001

Beschreibung wird geladen...

Live-Position

3D-Globus wird geladen...

Nächste Überflüge

Höhenverlauf

Altitude vs Time

uPlot chart will show altitude changes over time

Zweizeiliger Elementsatz

1 47596U 21009BA 25354.58336806 .00084608 00000-0 42743-2 0 9999
2 47596 53.0543 36.4646 0000516 83.1192 242.6372 15.16355961 5832
Epoch: 20. Dez. 2025 • Age: 6 hours

Aktueller Status

Höhe 532.8 km
Geschwindigkeit 7.60 km/s
Subsatellitenpunkt -46.33°S, 122.31°W
Startdatum 4. Feb. 2021
Alter 4.8 years
Typ internet

Technische Details

Klassifizierung Payload
Masse 260.00 kg
Trockenmasse 248.00 kg
Gesamtmasse 260.00 kg
Länge 0.20 m
Durchmesser 2.80 m
Spannweite 9.00 m
Form Box + pan
Hersteller SPXS
Bus-Typ Starlink
Phasenstatus In Orbit
Besitzer/Staat SPXS/US

Große Konstellationen

Loading constellations...